Weather WX

World > North America > United States > New York

New Woodstock, New York Regional Weather

Lat: 42.85N, Lon: 75.85W
Wx Zone: NYZ036
Warning FLW WEATHER ALERT - (More Info. Click Here) Warning
Feedback

New Woodstock, NY Regional Weather

Expires:201907161700;;736086
ASUS41 KBGM 161610
RWRBGM

REGIONAL WEATHER ROUNDUP
NATIONAL WEATHER SERVICE BINGHAMTON NY
1200 PM EDT TUE JUL 16 2019

Note: "fair" indicates few or no clouds below 12,000 feet with no
significant weather and/or obstructions to visibility.

* = Station(s) that does not report precipitation, such as rain, 
snow, etc, also no thunder or fog.


NYZ009-015>018-022>025-036-037-044>046-055>057-062-161700
...Central New York...
  
CITY           SKY/WX    TMP DP  RH WIND       PRES   REMARKS
Binghamton     FAIR      79  63  57 SW10      30.10R                  
Cortland       FAIR      81  64  57 S7        30.07S                  
Dansville      FAIR      90  70  51 VRB5      30.02F HX  95           
Elmira         FAIR      86  70  58 W6        30.04F HX  90           
Endicott       SUNNY     82  64  54 W6        30.06S                  
Ithaca         FAIR      85  69  58 SW8       30.07R HX  89           
Hamilton       PTSUNNY   82  63  51 SW8       30.05F                  
Hornell        MOSUNNY   86  64  48 W5        30.09S HX  87           
Monticello     CLOUDY    80  62  54 W6        30.12F                  
Norwich        CLOUDY    81  61  50 SE5       30.06F                  
Oneonta        SUNNY     79  63  57 W6        30.10S                  
Penn Yan       FAIR      86  69  56 S8        30.04S HX  90           
Rome           FAIR      80  64  58 CALM      30.02S                  
Seneca Falls   SUNNY     86  64  48 CALM      30.01F HX  87           
Sidney         SUNNY     79  63  57 SW7       30.07S                  
Skaneateles    FAIR      82  68  61 VRB7      30.04S HX  85           
Syracuse       FAIR      89  65  44 NW8       30.00F HX  91           
$$
 

SKY/WX - Weather  TMP - Temperature  DP - Dew Point  RH - Relative Humidity
WIND - Wind Direction/Speed PRES - Barometric Pressure VSB - Visibility
WCI - Wind Chill Index E13G22 Wind - East Wind 13 mph/Gusts of 22 mph